owner,sensor,date,latitude,longitude,sea_surface_height_above_sea_level,qcFlag 
COMPS,ioos:station:USF.COMPS:SHP:1,2009-09-01T00:00:00Z,30.0600,-84.2910,-0.509,1111122 
COMPS,ioos:station:USF.COMPS:SHP:1,2009-09-01T00:06:00Z,30.0600,-84.2910,-0.509,1111122 
COMPS,ioos:station:USF.COMPS:SHP:1,2009-09-01T00:12:00Z,30.0600,-84.2910,-0.504,1111122 
COMPS,ioos:station:USF.COMPS:SHP:1,2009-09-01T00:18:00Z,30.0600,-84.2910,-0.505,1111122 
COMPS,ioos:station:USF.COMPS:SHP:1,2009-09-01T00:24:00Z,30.0600,-84.2910,-0.506,1111122 
COMPS,ioos:station:USF.COMPS:SHP:1,2009-09-01T00:30:00Z,30.0600,-84.2910,-0.498,1111122 
COMPS,ioos:station:USF.COMPS:SHP:1,2009-09-01T00:36:00Z,30.0600,-84.2910,-0.485,1111122 
COMPS,ioos:station:USF.COMPS:SHP:1,2009-09-01T00:42:00Z,30.0600,-84.2910,-0.476,1111122 
COMPS,ioos:station:USF.COMPS:SHP:1,2009-09-01T00:48:00Z,30.0600,-84.2910,-0.469,1111122 
COMPS,ioos:station:USF.COMPS:SHP:1,2009-09-01T00:54:00Z,30.0600,-84.2910,-0.456,1111122 
COMPS,ioos:station:USF.COMPS:SHP:1,2009-09-01T01:00:00Z,30.0600,-84.2910,-0.441,1111122 
COMPS,ioos:station:USF.COMPS:SHP:1,2009-09-01T01:06:00Z,30.0600,-84.2910,-0.43,1111122 
COMPS,ioos:station:USF.COMPS:SHP:1,2009-09-01T01:12:00Z,30.0600,-84.2910,-0.419,1111122 
COMPS,ioos:station:USF.COMPS:SHP:1,2009-09-01T01:18:00Z,30.0600,-84.2910,-0.405,1111122 
COMPS,ioos:station:USF.COMPS:SHP:1,2009-09-01T01:24:00Z,30.0600,-84.2910,-0.387,1111122 
COMPS,ioos:station:USF.COMPS:SHP:1,2009-09-01T01:30:00Z,30.0600,-84.2910,-0.372,1111122 
COMPS,ioos:station:USF.COMPS:SHP:1,2009-09-01T01:36:00Z,30.0600,-84.2910,-0.357,1111122 
COMPS,ioos:station:USF.COMPS:SHP:1,2009-09-01T01:42:00Z,30.0600,-84.2910,-0.342,1111122 
COMPS,ioos:station:USF.COMPS:SHP:1,2009-09-01T01:48:00Z,30.0600,-84.2910,-0.325,1111122 
COMPS,ioos:station:USF.COMPS:SHP:1,2009-09-01T01:54:00Z,30.0600,-84.2910,-0.307,1111122 
COMPS,ioos:station:USF.COMPS:SHP:1,2009-09-01T02:00:00Z,30.0600,-84.2910,-0.286,1111122 
COMPS,ioos:station:USF.COMPS:SHP:1,2009-09-01T02:06:00Z,30.0600,-84.2910,-0.262,1111122 
COMPS,ioos:station:USF.COMPS:SHP:1,2009-09-01T02:12:00Z,30.0600,-84.2910,-0.237,1111122 
COMPS,ioos:station:USF.COMPS:SHP:1,2009-09-01T02:18:00Z,30.0600,-84.2910,-0.211,1111122 
COMPS,ioos:station:USF.COMPS:SHP:1,2009-09-01T02:24:00Z,30.0600,-84.2910,-0.191,1111122 
COMPS,ioos:station:USF.COMPS:SHP:1,2009-09-01T02:30:00Z,30.0600,-84.2910,-0.175,1111122 
COMPS,ioos:station:USF.COMPS:SHP:1,2009-09-01T02:36:00Z,30.0600,-84.2910,-0.157,1111122 
COMPS,ioos:station:USF.COMPS:SHP:1,2009-09-01T02:42:00Z,30.0600,-84.2910,-0.133,1111122 
COMPS,ioos:station:USF.COMPS:SHP:1,2009-09-01T02:48:00Z,30.0600,-84.2910,-0.108,1111122 
COMPS,ioos:station:USF.COMPS:SHP:1,2009-09-01T02:54:00Z,30.0600,-84.2910,-0.087,1111122 
COMPS,ioos:station:USF.COMPS:SHP:1,2009-09-01T03:00:00Z,30.0600,-84.2910,-0.065,1111122 
COMPS,ioos:station:USF.COMPS:SHP:1,2009-09-01T03:06:00Z,30.0600,-84.2910,-0.043,1111122 
COMPS,ioos:station:USF.COMPS:SHP:1,2009-09-01T03:12:00Z,30.0600,-84.2910,-0.018,1111122 
COMPS,ioos:station:USF.COMPS:SHP:1,2009-09-01T03:18:00Z,30.0600,-84.2910,0.007,1111122 
COMPS,ioos:station:USF.COMPS:SHP:1,2009-09-01T03:24:00Z,30.0600,-84.2910,0.029,1111122 
COMPS,ioos:station:USF.COMPS:SHP:1,2009-09-01T03:30:00Z,30.0600,-84.2910,0.051,1111122 
COMPS,ioos:station:USF.COMPS:SHP:1,2009-09-01T03:36:00Z,30.0600,-84.2910,0.073,1111122 
COMPS,ioos:station:USF.COMPS:SHP:1,2009-09-01T03:42:00Z,30.0600,-84.2910,0.091,1111122 
COMPS,ioos:station:USF.COMPS:SHP:1,2009-09-01T03:48:00Z,30.0600,-84.2910,0.11,1111122 
COMPS,ioos:station:USF.COMPS:SHP:1,2009-09-01T03:54:00Z,30.0600,-84.2910,0.131,1111122 
COMPS,ioos:station:USF.COMPS:SHP:1,2009-09-01T04:00:00Z,30.0600,-84.2910,0.153,1111122 
COMPS,ioos:station:USF.COMPS:SHP:1,2009-09-01T04:06:00Z,30.0600,-84.2910,0.173,1111122 
COMPS,ioos:station:USF.COMPS:SHP:1,2009-09-01T04:12:00Z,30.0600,-84.2910,0.184,1111122 
COMPS,ioos:station:USF.COMPS:SHP:1,2009-09-01T04:18:00Z,30.0600,-84.2910,0.199,1111122 
COMPS,ioos:station:USF.COMPS:SHP:1,2009-09-01T04:24:00Z,30.0600,-84.2910,0.214,1111122 
COMPS,ioos:station:USF.COMPS:SHP:1,2009-09-01T04:30:00Z,30.0600,-84.2910,0.229,1111122 
COMPS,ioos:station:USF.COMPS:SHP:1,2009-09-01T04:36:00Z,30.0600,-84.2910,0.243,1111122 
COMPS,ioos:station:USF.COMPS:SHP:1,2009-09-01T04:42:00Z,30.0600,-84.2910,0.258,1111122 
COMPS,ioos:station:USF.COMPS:SHP:1,2009-09-01T04:48:00Z,30.0600,-84.2910,0.273,1111122 
COMPS,ioos:station:USF.COMPS:SHP:1,2009-09-01T04:54:00Z,30.0600,-84.2910,0.293,1111122 
COMPS,ioos:station:USF.COMPS:SHP:1,2009-09-01T05:00:00Z,30.0600,-84.2910,0.306,1111122 
COMPS,ioos:station:USF.COMPS:SHP:1,2009-09-01T05:06:00Z,30.0600,-84.2910,0.312,1111122 
COMPS,ioos:station:USF.COMPS:SHP:1,2009-09-01T05:12:00Z,30.0600,-84.2910,0.324,1111122 
COMPS,ioos:station:USF.COMPS:SHP:1,2009-09-01T05:18:00Z,30.0600,-84.2910,0.33,1111122 
COMPS,ioos:station:USF.COMPS:SHP:1,2009-09-01T05:24:00Z,30.0600,-84.2910,0.33,1111122 
COMPS,ioos:station:USF.COMPS:SHP:1,2009-09-01T05:30:00Z,30.0600,-84.2910,0.333,1111122 
COMPS,ioos:station:USF.COMPS:SHP:1,2009-09-01T05:36:00Z,30.0600,-84.2910,0.338,1111122 
COMPS,ioos:station:USF.COMPS:SHP:1,2009-09-01T05:42:00Z,30.0600,-84.2910,0.345,1111122 
COMPS,ioos:station:USF.COMPS:SHP:1,2009-09-01T05:48:00Z,30.0600,-84.2910,0.35,1111122 
COMPS,ioos:station:USF.COMPS:SHP:1,2009-09-01T05:54:00Z,30.0600,-84.2910,0.35,1111122 
COMPS,ioos:station:USF.COMPS:SHP:1,2009-09-01T06:00:00Z,30.0600,-84.2910,0.338,1111122 
COMPS,ioos:station:USF.COMPS:SHP:1,2009-09-01T06:06:00Z,30.0600,-84.2910,0.337,1111122 
COMPS,ioos:station:USF.COMPS:SHP:1,2009-09-01T06:12:00Z,30.0600,-84.2910,0.339,1111122 
COMPS,ioos:station:USF.COMPS:SHP:1,2009-09-01T06:18:00Z,30.0600,-84.2910,0.344,1111122 
COMPS,ioos:station:USF.COMPS:SHP:1,2009-09-01T06:24:00Z,30.0600,-84.2910,0.348,1111122 
COMPS,ioos:station:USF.COMPS:SHP:1,2009-09-01T06:30:00Z,30.0600,-84.2910,0.345,1111122 
COMPS,ioos:station:USF.COMPS:SHP:1,2009-09-01T06:36:00Z,30.0600,-84.2910,0.349,1111122 
COMPS,ioos:station:USF.COMPS:SHP:1,2009-09-01T06:42:00Z,30.0600,-84.2910,0.349,1111122 
COMPS,ioos:station:USF.COMPS:SHP:1,2009-09-01T06:48:00Z,30.0600,-84.2910,0.338,1111122 
COMPS,ioos:station:USF.COMPS:SHP:1,2009-09-01T06:54:00Z,30.0600,-84.2910,0.325,1111122 
COMPS,ioos:station:USF.COMPS:SHP:1,2009-09-01T07:00:00Z,30.0600,-84.2910,0.318,1111122 
COMPS,ioos:station:USF.COMPS:SHP:1,2009-09-01T07:06:00Z,30.0600,-84.2910,0.312,1111122 
COMPS,ioos:station:USF.COMPS:SHP:1,2009-09-01T07:12:00Z,30.0600,-84.2910,0.307,1111122 
COMPS,ioos:station:USF.COMPS:SHP:1,2009-09-01T07:18:00Z,30.0600,-84.2910,0.309,1111122 
COMPS,ioos:station:USF.COMPS:SHP:1,2009-09-01T07:24:00Z,30.0600,-84.2910,0.299,1111122 
COMPS,ioos:station:USF.COMPS:SHP:1,2009-09-01T07:30:00Z,30.0600,-84.2910,0.29,1111122 
COMPS,ioos:station:USF.COMPS:SHP:1,2009-09-01T07:36:00Z,30.0600,-84.2910,0.287,1111122 
COMPS,ioos:station:USF.COMPS:SHP:1,2009-09-01T07:42:00Z,30.0600,-84.2910,0.275,1111122 
COMPS,ioos:station:USF.COMPS:SHP:1,2009-09-01T07:48:00Z,30.0600,-84.2910,0.257,1111122 
COMPS,ioos:station:USF.COMPS:SHP:1,2009-09-01T07:54:00Z,30.0600,-84.2910,0.238,1111122 
COMPS,ioos:station:USF.COMPS:SHP:1,2009-09-01T08:00:00Z,30.0600,-84.2910,0.216,1111122 
COMPS,ioos:station:USF.COMPS:SHP:1,2009-09-01T08:06:00Z,30.0600,-84.2910,0.207,1111122 
COMPS,ioos:station:USF.COMPS:SHP:1,2009-09-01T08:12:00Z,30.0600,-84.2910,0.21,1111122 
COMPS,ioos:station:USF.COMPS:SHP:1,2009-09-01T08:18:00Z,30.0600,-84.2910,0.208,1111122 
COMPS,ioos:station:USF.COMPS:SHP:1,2009-09-01T08:24:00Z,30.0600,-84.2910,0.19,1111122 
COMPS,ioos:station:USF.COMPS:SHP:1,2009-09-01T08:30:00Z,30.0600,-84.2910,0.164,1111122 
COMPS,ioos:station:USF.COMPS:SHP:1,2009-09-01T08:36:00Z,30.0600,-84.2910,0.14,1111122 
COMPS,ioos:station:USF.COMPS:SHP:1,2009-09-01T08:42:00Z,30.0600,-84.2910,0.136,1111122 
COMPS,ioos:station:USF.COMPS:SHP:1,2009-09-01T08:48:00Z,30.0600,-84.2910,0.131,1111122 
COMPS,ioos:station:USF.COMPS:SHP:1,2009-09-01T08:54:00Z,30.0600,-84.2910,0.119,1111122 
COMPS,ioos:station:USF.COMPS:SHP:1,2009-09-01T09:00:00Z,30.0600,-84.2910,0.108,1111122 
COMPS,ioos:station:USF.COMPS:SHP:1,2009-09-01T09:06:00Z,30.0600,-84.2910,0.103,1111122 
COMPS,ioos:station:USF.COMPS:SHP:1,2009-09-01T09:12:00Z,30.0600,-84.2910,0.096,1111122 
COMPS,ioos:station:USF.COMPS:SHP:1,2009-09-01T09:18:00Z,30.0600,-84.2910,0.077,1111122 
COMPS,ioos:station:USF.COMPS:SHP:1,2009-09-01T09:24:00Z,30.0600,-84.2910,0.061,1111122 
COMPS,ioos:station:USF.COMPS:SHP:1,2009-09-01T09:30:00Z,30.0600,-84.2910,0.058,1111122 
COMPS,ioos:station:USF.COMPS:SHP:1,2009-09-01T09:36:00Z,30.0600,-84.2910,0.072,1111122 
COMPS,ioos:station:USF.COMPS:SHP:1,2009-09-01T09:42:00Z,30.0600,-84.2910,0.089,1111122 
COMPS,ioos:station:USF.COMPS:SHP:1,2009-09-01T09:48:00Z,30.0600,-84.2910,0.083,1111122 
COMPS,ioos:station:USF.COMPS:SHP:1,2009-09-01T09:54:00Z,30.0600,-84.2910,0.053,1111122 
COMPS,ioos:station:USF.COMPS:SHP:1,2009-09-01T10:00:00Z,30.0600,-84.2910,0.029,1111122 
COMPS,ioos:station:USF.COMPS:SHP:1,2009-09-01T10:06:00Z,30.0600,-84.2910,0.023,1111122 
COMPS,ioos:station:USF.COMPS:SHP:1,2009-09-01T10:12:00Z,30.0600,-84.2910,0.021,1111122 
COMPS,ioos:station:USF.COMPS:SHP:1,2009-09-01T10:18:00Z,30.0600,-84.2910,0.014,1111122 
COMPS,ioos:station:USF.COMPS:SHP:1,2009-09-01T10:24:00Z,30.0600,-84.2910,0.006,1111122 
COMPS,ioos:station:USF.COMPS:SHP:1,2009-09-01T10:30:00Z,30.0600,-84.2910,-0.005,1111122 
COMPS,ioos:station:USF.COMPS:SHP:1,2009-09-01T10:36:00Z,30.0600,-84.2910,-0.015,1111122 
COMPS,ioos:station:USF.COMPS:SHP:1,2009-09-01T10:42:00Z,30.0600,-84.2910,-0.025,1111122 
COMPS,ioos:station:USF.COMPS:SHP:1,2009-09-01T10:48:00Z,30.0600,-84.2910,-0.03,1111122 
COMPS,ioos:station:USF.COMPS:SHP:1,2009-09-01T10:54:00Z,30.0600,-84.2910,-0.028,1111122 
COMPS,ioos:station:USF.COMPS:SHP:1,2009-09-01T11:00:00Z,30.0600,-84.2910,-0.032,1111122 
COMPS,ioos:station:USF.COMPS:SHP:1,2009-09-01T11:06:00Z,30.0600,-84.2910,-0.037,1111122 
COMPS,ioos:station:USF.COMPS:SHP:1,2009-09-01T11:12:00Z,30.0600,-84.2910,-0.033,1111122 
COMPS,ioos:station:USF.COMPS:SHP:1,2009-09-01T11:18:00Z,30.0600,-84.2910,-0.027,1111122 
COMPS,ioos:station:USF.COMPS:SHP:1,2009-09-01T11:24:00Z,30.0600,-84.2910,-0.033,1111122 
COMPS,ioos:station:USF.COMPS:SHP:1,2009-09-01T11:30:00Z,30.0600,-84.2910,-0.036,1111122 
COMPS,ioos:station:USF.COMPS:SHP:1,2009-09-01T11:36:00Z,30.0600,-84.2910,-0.028,1111122 
COMPS,ioos:station:USF.COMPS:SHP:1,2009-09-01T11:42:00Z,30.0600,-84.2910,-0.025,1111122 
COMPS,ioos:station:USF.COMPS:SHP:1,2009-09-01T11:48:00Z,30.0600,-84.2910,-0.031,1111122 
COMPS,ioos:station:USF.COMPS:SHP:1,2009-09-01T11:54:00Z,30.0600,-84.2910,-0.031,1111122 
COMPS,ioos:station:USF.COMPS:SHP:1,2009-09-01T12:00:00Z,30.0600,-84.2910,-0.014,1111122 
COMPS,ioos:station:USF.COMPS:SHP:1,2009-09-01T12:06:00Z,30.0600,-84.2910,-0.002,1111122 
COMPS,ioos:station:USF.COMPS:SHP:1,2009-09-01T12:12:00Z,30.0600,-84.2910,0.006,1111122 
COMPS,ioos:station:USF.COMPS:SHP:1,2009-09-01T12:18:00Z,30.0600,-84.2910,0.018,1111122 
COMPS,ioos:station:USF.COMPS:SHP:1,2009-09-01T12:24:00Z,30.0600,-84.2910,0.024,1111122 
COMPS,ioos:station:USF.COMPS:SHP:1,2009-09-01T12:30:00Z,30.0600,-84.2910,0.027,1111122 
COMPS,ioos:station:USF.COMPS:SHP:1,2009-09-01T12:36:00Z,30.0600,-84.2910,0.033,1111122 
COMPS,ioos:station:USF.COMPS:SHP:1,2009-09-01T12:42:00Z,30.0600,-84.2910,0.034,1111122 
COMPS,ioos:station:USF.COMPS:SHP:1,2009-09-01T12:48:00Z,30.0600,-84.2910,0.038,1111122 
COMPS,ioos:station:USF.COMPS:SHP:1,2009-09-01T12:54:00Z,30.0600,-84.2910,0.05,1111122 
COMPS,ioos:station:USF.COMPS:SHP:1,2009-09-01T13:00:00Z,30.0600,-84.2910,0.066,1111122 
COMPS,ioos:station:USF.COMPS:SHP:1,2009-09-01T13:06:00Z,30.0600,-84.2910,0.083,1111122 
COMPS,ioos:station:USF.COMPS:SHP:1,2009-09-01T13:12:00Z,30.0600,-84.2910,0.104,1111122 
COMPS,ioos:station:USF.COMPS:SHP:1,2009-09-01T13:18:00Z,30.0600,-84.2910,0.121,1111122 
COMPS,ioos:station:USF.COMPS:SHP:1,2009-09-01T13:24:00Z,30.0600,-84.2910,0.13,1111122 
COMPS,ioos:station:USF.COMPS:SHP:1,2009-09-01T13:30:00Z,30.0600,-84.2910,0.138,1111122 
COMPS,ioos:station:USF.COMPS:SHP:1,2009-09-01T13:36:00Z,30.0600,-84.2910,0.155,1111122 
COMPS,ioos:station:USF.COMPS:SHP:1,2009-09-01T13:42:00Z,30.0600,-84.2910,0.177,1111122 
COMPS,ioos:station:USF.COMPS:SHP:1,2009-09-01T13:48:00Z,30.0600,-84.2910,0.192,1111122 
COMPS,ioos:station:USF.COMPS:SHP:1,2009-09-01T13:54:00Z,30.0600,-84.2910,0.203,1111122 
COMPS,ioos:station:USF.COMPS:SHP:1,2009-09-01T14:00:00Z,30.0600,-84.2910,0.222,1111122 
COMPS,ioos:station:USF.COMPS:SHP:1,2009-09-01T14:06:00Z,30.0600,-84.2910,0.237,1111122 
COMPS,ioos:station:USF.COMPS:SHP:1,2009-09-01T14:12:00Z,30.0600,-84.2910,0.253,1111122 
COMPS,ioos:station:USF.COMPS:SHP:1,2009-09-01T14:18:00Z,30.0600,-84.2910,0.27,1111122 
COMPS,ioos:station:USF.COMPS:SHP:1,2009-09-01T14:24:00Z,30.0600,-84.2910,0.282,1111122 
COMPS,ioos:station:USF.COMPS:SHP:1,2009-09-01T14:30:00Z,30.0600,-84.2910,0.303,1111122 
COMPS,ioos:station:USF.COMPS:SHP:1,2009-09-01T14:36:00Z,30.0600,-84.2910,0.327,1111122 
COMPS,ioos:station:USF.COMPS:SHP:1,2009-09-01T14:42:00Z,30.0600,-84.2910,0.343,1111122 
COMPS,ioos:station:USF.COMPS:SHP:1,2009-09-01T14:48:00Z,30.0600,-84.2910,0.354,1111122 
COMPS,ioos:station:USF.COMPS:SHP:1,2009-09-01T14:54:00Z,30.0600,-84.2910,0.362,1111122 
COMPS,ioos:station:USF.COMPS:SHP:1,2009-09-01T15:00:00Z,30.0600,-84.2910,0.373,1111122 
COMPS,ioos:station:USF.COMPS:SHP:1,2009-09-01T15:06:00Z,30.0600,-84.2910,0.388,1111122 
COMPS,ioos:station:USF.COMPS:SHP:1,2009-09-01T15:12:00Z,30.0600,-84.2910,0.407,1111122 
COMPS,ioos:station:USF.COMPS:SHP:1,2009-09-01T15:18:00Z,30.0600,-84.2910,0.417,1111122 
COMPS,ioos:station:USF.COMPS:SHP:1,2009-09-01T15:24:00Z,30.0600,-84.2910,0.424,1111122 
COMPS,ioos:station:USF.COMPS:SHP:1,2009-09-01T15:30:00Z,30.0600,-84.2910,0.442,1111122 
COMPS,ioos:station:USF.COMPS:SHP:1,2009-09-01T15:36:00Z,30.0600,-84.2910,0.452,1111122 
COMPS,ioos:station:USF.COMPS:SHP:1,2009-09-01T15:42:00Z,30.0600,-84.2910,0.461,1111122 
COMPS,ioos:station:USF.COMPS:SHP:1,2009-09-01T15:48:00Z,30.0600,-84.2910,0.479,1111122 
COMPS,ioos:station:USF.COMPS:SHP:1,2009-09-01T15:54:00Z,30.0600,-84.2910,0.491,1111122 
COMPS,ioos:station:USF.COMPS:SHP:1,2009-09-01T16:00:00Z,30.0600,-84.2910,0.496,1111122 
COMPS,ioos:station:USF.COMPS:SHP:1,2009-09-01T16:06:00Z,30.0600,-84.2910,0.5,1111122 
COMPS,ioos:station:USF.COMPS:SHP:1,2009-09-01T16:12:00Z,30.0600,-84.2910,0.507,1111122 
COMPS,ioos:station:USF.COMPS:SHP:1,2009-09-01T16:18:00Z,30.0600,-84.2910,0.509,1111122 
COMPS,ioos:station:USF.COMPS:SHP:1,2009-09-01T16:24:00Z,30.0600,-84.2910,0.512,1111122 
COMPS,ioos:station:USF.COMPS:SHP:1,2009-09-01T16:30:00Z,30.0600,-84.2910,0.523,1111122 
COMPS,ioos:station:USF.COMPS:SHP:1,2009-09-01T16:36:00Z,30.0600,-84.2910,0.528,1111122 
COMPS,ioos:station:USF.COMPS:SHP:1,2009-09-01T16:42:00Z,30.0600,-84.2910,0.534,1111122 
COMPS,ioos:station:USF.COMPS:SHP:1,2009-09-01T16:48:00Z,30.0600,-84.2910,0.546,1111122 
COMPS,ioos:station:USF.COMPS:SHP:1,2009-09-01T16:54:00Z,30.0600,-84.2910,0.552,1111122 
COMPS,ioos:station:USF.COMPS:SHP:1,2009-09-01T17:00:00Z,30.0600,-84.2910,0.552,1111122 
COMPS,ioos:station:USF.COMPS:SHP:1,2009-09-01T17:06:00Z,30.0600,-84.2910,0.554,1111122 
COMPS,ioos:station:USF.COMPS:SHP:1,2009-09-01T17:12:00Z,30.0600,-84.2910,0.552,1111122 
COMPS,ioos:station:USF.COMPS:SHP:1,2009-09-01T17:18:00Z,30.0600,-84.2910,0.564,1111122 
COMPS,ioos:station:USF.COMPS:SHP:1,2009-09-01T17:24:00Z,30.0600,-84.2910,0.568,1111122 
COMPS,ioos:station:USF.COMPS:SHP:1,2009-09-01T17:30:00Z,30.0600,-84.2910,0.55,1111122 
COMPS,ioos:station:USF.COMPS:SHP:1,2009-09-01T17:36:00Z,30.0600,-84.2910,0.543,1111122 
COMPS,ioos:station:USF.COMPS:SHP:1,2009-09-01T17:42:00Z,30.0600,-84.2910,0.544,1111122 
COMPS,ioos:station:USF.COMPS:SHP:1,2009-09-01T17:48:00Z,30.0600,-84.2910,0.542,1111122 
COMPS,ioos:station:USF.COMPS:SHP:1,2009-09-01T17:54:00Z,30.0600,-84.2910,0.541,1111122 
COMPS,ioos:station:USF.COMPS:SHP:1,2009-09-01T18:00:00Z,30.0600,-84.2910,0.534,1111122 
COMPS,ioos:station:USF.COMPS:SHP:1,2009-09-01T18:06:00Z,30.0600,-84.2910,0.534,1111122 
COMPS,ioos:station:USF.COMPS:SHP:1,2009-09-01T18:12:00Z,30.0600,-84.2910,0.522,1111122 
COMPS,ioos:station:USF.COMPS:SHP:1,2009-09-01T18:18:00Z,30.0600,-84.2910,0.51,1111122 
COMPS,ioos:station:USF.COMPS:SHP:1,2009-09-01T18:24:00Z,30.0600,-84.2910,0.508,1111122 
COMPS,ioos:station:USF.COMPS:SHP:1,2009-09-01T18:30:00Z,30.0600,-84.2910,0.488,1111122 
COMPS,ioos:station:USF.COMPS:SHP:1,2009-09-01T18:36:00Z,30.0600,-84.2910,0.481,1111122 
COMPS,ioos:station:USF.COMPS:SHP:1,2009-09-01T18:42:00Z,30.0600,-84.2910,0.477,1111122 
COMPS,ioos:station:USF.COMPS:SHP:1,2009-09-01T18:48:00Z,30.0600,-84.2910,0.451,1111122 
COMPS,ioos:station:USF.COMPS:SHP:1,2009-09-01T18:54:00Z,30.0600,-84.2910,0.442,1111122 
COMPS,ioos:station:USF.COMPS:SHP:1,2009-09-01T19:00:00Z,30.0600,-84.2910,0.434,1111122 
COMPS,ioos:station:USF.COMPS:SHP:1,2009-09-01T19:06:00Z,30.0600,-84.2910,0.413,1111122 
COMPS,ioos:station:USF.COMPS:SHP:1,2009-09-01T19:12:00Z,30.0600,-84.2910,0.392,1111122 
COMPS,ioos:station:USF.COMPS:SHP:1,2009-09-01T19:18:00Z,30.0600,-84.2910,0.375,1111122 
COMPS,ioos:station:USF.COMPS:SHP:1,2009-09-01T19:24:00Z,30.0600,-84.2910,0.358,1111122 
COMPS,ioos:station:USF.COMPS:SHP:1,2009-09-01T19:30:00Z,30.0600,-84.2910,0.341,1111122 
COMPS,ioos:station:USF.COMPS:SHP:1,2009-09-01T19:36:00Z,30.0600,-84.2910,0.317,1111122 
COMPS,ioos:station:USF.COMPS:SHP:1,2009-09-01T19:42:00Z,30.0600,-84.2910,0.294,1111122 
COMPS,ioos:station:USF.COMPS:SHP:1,2009-09-01T19:48:00Z,30.0600,-84.2910,0.271,1111122 
COMPS,ioos:station:USF.COMPS:SHP:1,2009-09-01T19:54:00Z,30.0600,-84.2910,0.251,1111122 
COMPS,ioos:station:USF.COMPS:SHP:1,2009-09-01T20:00:00Z,30.0600,-84.2910,0.233,1111122 
COMPS,ioos:station:USF.COMPS:SHP:1,2009-09-01T20:06:00Z,30.0600,-84.2910,0.214,1111122 
COMPS,ioos:station:USF.COMPS:SHP:1,2009-09-01T20:12:00Z,30.0600,-84.2910,0.187,1111122 
COMPS,ioos:station:USF.COMPS:SHP:1,2009-09-01T20:18:00Z,30.0600,-84.2910,0.164,1111122 
COMPS,ioos:station:USF.COMPS:SHP:1,2009-09-01T20:24:00Z,30.0600,-84.2910,0.143,1111122 
COMPS,ioos:station:USF.COMPS:SHP:1,2009-09-01T20:30:00Z,30.0600,-84.2910,0.111,1111122 
COMPS,ioos:station:USF.COMPS:SHP:1,2009-09-01T20:36:00Z,30.0600,-84.2910,0.084,1111122 
COMPS,ioos:station:USF.COMPS:SHP:1,2009-09-01T20:42:00Z,30.0600,-84.2910,0.064,1111122 
COMPS,ioos:station:USF.COMPS:SHP:1,2009-09-01T20:48:00Z,30.0600,-84.2910,0.038,1111122 
COMPS,ioos:station:USF.COMPS:SHP:1,2009-09-01T20:54:00Z,30.0600,-84.2910,0.016,1111122 
COMPS,ioos:station:USF.COMPS:SHP:1,2009-09-01T21:00:00Z,30.0600,-84.2910,0.001,1111122 
COMPS,ioos:station:USF.COMPS:SHP:1,2009-09-01T21:06:00Z,30.0600,-84.2910,-0.018,1111122 
COMPS,ioos:station:USF.COMPS:SHP:1,2009-09-01T21:12:00Z,30.0600,-84.2910,-0.049,1111122 
COMPS,ioos:station:USF.COMPS:SHP:1,2009-09-01T21:18:00Z,30.0600,-84.2910,-0.078,1111122 
COMPS,ioos:station:USF.COMPS:SHP:1,2009-09-01T21:24:00Z,30.0600,-84.2910,-0.096,1111122 
COMPS,ioos:station:USF.COMPS:SHP:1,2009-09-01T21:30:00Z,30.0600,-84.2910,-0.114,1111122 
COMPS,ioos:station:USF.COMPS:SHP:1,2009-09-01T21:36:00Z,30.0600,-84.2910,-0.137,1111122 
COMPS,ioos:station:USF.COMPS:SHP:1,2009-09-01T21:42:00Z,30.0600,-84.2910,-0.158,1111122 
COMPS,ioos:station:USF.COMPS:SHP:1,2009-09-01T21:48:00Z,30.0600,-84.2910,-0.172,1111122 
COMPS,ioos:station:USF.COMPS:SHP:1,2009-09-01T21:54:00Z,30.0600,-84.2910,-0.188,1111122 
COMPS,ioos:station:USF.COMPS:SHP:1,2009-09-01T22:00:00Z,30.0600,-84.2910,-0.209,1111122 
COMPS,ioos:station:USF.COMPS:SHP:1,2009-09-01T22:06:00Z,30.0600,-84.2910,-0.231,1111122 
COMPS,ioos:station:USF.COMPS:SHP:1,2009-09-01T22:12:00Z,30.0600,-84.2910,-0.25,1111122 
COMPS,ioos:station:USF.COMPS:SHP:1,2009-09-01T22:18:00Z,30.0600,-84.2910,-0.27,1111122 
COMPS,ioos:station:USF.COMPS:SHP:1,2009-09-01T22:24:00Z,30.0600,-84.2910,-0.289,1111122 
COMPS,ioos:station:USF.COMPS:SHP:1,2009-09-01T22:30:00Z,30.0600,-84.2910,-0.31,1111122 
COMPS,ioos:station:USF.COMPS:SHP:1,2009-09-01T22:36:00Z,30.0600,-84.2910,-0.329,1111122 
COMPS,ioos:station:USF.COMPS:SHP:1,2009-09-01T22:42:00Z,30.0600,-84.2910,-0.347,1111122 
COMPS,ioos:station:USF.COMPS:SHP:1,2009-09-01T22:48:00Z,30.0600,-84.2910,-0.366,1111122 
COMPS,ioos:station:USF.COMPS:SHP:1,2009-09-01T22:54:00Z,30.0600,-84.2910,-0.385,1111122 
COMPS,ioos:station:USF.COMPS:SHP:1,2009-09-01T23:00:00Z,30.0600,-84.2910,-0.401,1111122 
COMPS,ioos:station:USF.COMPS:SHP:1,2009-09-01T23:06:00Z,30.0600,-84.2910,-0.416,1111122 
COMPS,ioos:station:USF.COMPS:SHP:1,2009-09-01T23:12:00Z,30.0600,-84.2910,-0.43,1111122 
COMPS,ioos:station:USF.COMPS:SHP:1,2009-09-01T23:18:00Z,30.0600,-84.2910,-0.444,1111122 
COMPS,ioos:station:USF.COMPS:SHP:1,2009-09-01T23:24:00Z,30.0600,-84.2910,-0.457,1111122 
COMPS,ioos:station:USF.COMPS:SHP:1,2009-09-01T23:30:00Z,30.0600,-84.2910,-0.467,1111122 
COMPS,ioos:station:USF.COMPS:SHP:1,2009-09-01T23:36:00Z,30.0600,-84.2910,-0.475,1111122 
COMPS,ioos:station:USF.COMPS:SHP:1,2009-09-01T23:42:00Z,30.0600,-84.2910,-0.481,1111122 
COMPS,ioos:station:USF.COMPS:SHP:1,2009-09-01T23:48:00Z,30.0600,-84.2910,-0.484,1111122 
COMPS,ioos:station:USF.COMPS:SHP:1,2009-09-01T23:54:00Z,30.0600,-84.2910,-0.49,1111122 
COMPS,ioos:station:USF.COMPS:SHP:1,2009-09-02T00:00:00Z,30.0600,-84.2910,-0.496,1111122 
COMPS,ioos:station:USF.COMPS:SHP:1,2009-09-02T00:06:00Z,30.0600,-84.2910,-0.496,1111122 
COMPS,ioos:station:USF.COMPS:SHP:1,2009-09-02T00:12:00Z,30.0600,-84.2910,-0.495,1111122 
COMPS,ioos:station:USF.COMPS:SHP:1,2009-09-02T00:18:00Z,30.0600,-84.2910,-0.494,1111122 
COMPS,ioos:station:USF.COMPS:SHP:1,2009-09-02T00:24:00Z,30.0600,-84.2910,-0.493,1111122 
COMPS,ioos:station:USF.COMPS:SHP:1,2009-09-02T00:30:00Z,30.0600,-84.2910,-0.486,1111122 
COMPS,ioos:station:USF.COMPS:SHP:1,2009-09-02T00:36:00Z,30.0600,-84.2910,-0.478,1111122 
COMPS,ioos:station:USF.COMPS:SHP:1,2009-09-02T00:42:00Z,30.0600,-84.2910,-0.474,1111122 
COMPS,ioos:station:USF.COMPS:SHP:1,2009-09-02T00:48:00Z,30.0600,-84.2910,-0.466,1111122 
COMPS,ioos:station:USF.COMPS:SHP:1,2009-09-02T00:54:00Z,30.0600,-84.2910,-0.452,1111122 
COMPS,ioos:station:USF.COMPS:SHP:1,2009-09-02T01:00:00Z,30.0600,-84.2910,-0.437,1111122 
COMPS,ioos:station:USF.COMPS:SHP:1,2009-09-02T01:06:00Z,30.0600,-84.2910,-0.426,1111122 
COMPS,ioos:station:USF.COMPS:SHP:1,2009-09-02T01:12:00Z,30.0600,-84.2910,-0.416,1111122 
COMPS,ioos:station:USF.COMPS:SHP:1,2009-09-02T01:18:00Z,30.0600,-84.2910,-0.404,1111122 
COMPS,ioos:station:USF.COMPS:SHP:1,2009-09-02T01:24:00Z,30.0600,-84.2910,-0.392,1111122 
COMPS,ioos:station:USF.COMPS:SHP:1,2009-09-02T01:30:00Z,30.0600,-84.2910,-0.381,1111122 
COMPS,ioos:station:USF.COMPS:SHP:1,2009-09-02T01:36:00Z,30.0600,-84.2910,-0.367,1111122 
COMPS,ioos:station:USF.COMPS:SHP:1,2009-09-02T01:42:00Z,30.0600,-84.2910,-0.352,1111122 
COMPS,ioos:station:USF.COMPS:SHP:1,2009-09-02T01:48:00Z,30.0600,-84.2910,-0.338,1111122 
COMPS,ioos:station:USF.COMPS:SHP:1,2009-09-02T01:54:00Z,30.0600,-84.2910,-0.321,1111122 
COMPS,ioos:station:USF.COMPS:SHP:1,2009-09-02T02:00:00Z,30.0600,-84.2910,-0.295,1111122 
COMPS,ioos:station:USF.COMPS:SHP:1,2009-09-02T02:06:00Z,30.0600,-84.2910,-0.269,1111122 
COMPS,ioos:station:USF.COMPS:SHP:1,2009-09-02T02:12:00Z,30.0600,-84.2910,-0.246,1111122 
COMPS,ioos:station:USF.COMPS:SHP:1,2009-09-02T02:18:00Z,30.0600,-84.2910,-0.216,1111122 
COMPS,ioos:station:USF.COMPS:SHP:1,2009-09-02T02:24:00Z,30.0600,-84.2910,-0.184,1111122 
COMPS,ioos:station:USF.COMPS:SHP:1,2009-09-02T02:30:00Z,30.0600,-84.2910,-0.163,1111122 
COMPS,ioos:station:USF.COMPS:SHP:1,2009-09-02T02:36:00Z,30.0600,-84.2910,-0.145,1111122 
COMPS,ioos:station:USF.COMPS:SHP:1,2009-09-02T02:42:00Z,30.0600,-84.2910,-0.117,1111122 
COMPS,ioos:station:USF.COMPS:SHP:1,2009-09-02T02:48:00Z,30.0600,-84.2910,-0.088,1111122 
COMPS,ioos:station:USF.COMPS:SHP:1,2009-09-02T02:54:00Z,30.0600,-84.2910,-0.06,1111122 